Hourly Weather Abay

Today, 24 October, Saturday

Time Temperature Precipitation Wind Pressure Humidity
00:00 -5°C° 0 mm 4 mps 720 mmHg 63%
01:00 -5°C° 0 mm 4 mps 720 mmHg 66%
02:00 -7°C° 0 mm 4 mps 720 mmHg 68%
03:00 -7°C° 0 mm 4 mps 721 mmHg 72%
04:00 -6°C° 0 mm 3 mps 721 mmHg 76%
05:00 -7°C° 0 mm 3 mps 721 mmHg 80%
06:00 -7°C° 0 mm 3 mps 722 mmHg 78%
07:00 -6°C° 0 mm 3 mps 722 mmHg 75%
08:00 -6°C° 0 mm 3 mps 723 mmHg 72%
09:00 -5°C° 0 mm 4 mps 723 mmHg 65%
10:00 -4°C° 0 mm 4 mps 724 mmHg 57%
11:00 -3°C° 0 mm 4 mps 724 mmHg 50%
12:00 -2°C° 0 mm 4 mps 724 mmHg 48%
13:00 -2°C° 0 mm 4 mps 724 mmHg 46%
14:00 -1°C° 0 mm 4 mps 724 mmHg 44%
15:00 -2°C° 0 mm 4 mps 724 mmHg 45%
16:00 -1°C° 0 mm 3 mps 724 mmHg 46%
17:00 -1°C° 0 mm 3 mps 724 mmHg 48%
18:00 -2°C° 0 mm 3 mps 724 mmHg 49%
19:00 -2°C° 0 mm 3 mps 724 mmHg 50%
20:00 -2°C° 0 mm 3 mps 724 mmHg 51%
21:00 -2°C° 0 mm 3 mps 724 mmHg 50%
22:00 -3°C° 0 mm 4 mps 724 mmHg 50%
23:00 -3°C° 0 mm 4 mps 724 mmHg 49%

Tomorrow, 25 October, Sunday

Time Temperature Precipitation Wind Pressure Humidity
00:00 -3°C° 0 mm 4 mps 723 mmHg 49%
01:00 -4°C° 0 mm 5 mps 723 mmHg 48%
02:00 -4°C° 0 mm 5 mps 723 mmHg 47%
03:00 -4°C° 0 mm 6 mps 722 mmHg 46%
04:00 -4°C° 0 mm 6 mps 722 mmHg 44%
05:00 -3°C° 0 mm 7 mps 722 mmHg 42%
06:00 -4°C° 0 mm 8 mps 722 mmHg 40%
07:00 -2°C° 0 mm 8 mps 722 mmHg 38%
08:00 -3°C° 0 mm 9 mps 722 mmHg 35%
09:00 -1°C° 0 mm 9 mps 721 mmHg 35%
10:00 0°C° 0 mm 10 mps 721 mmHg 34%
11:00 +1°C° 0 mm 10 mps 721 mmHg 33%
12:00 +1°C° 0 mm 10 mps 721 mmHg 40%
13:00 +1°C° 0 mm 9 mps 720 mmHg 48%
14:00 +1°C° 0 mm 9 mps 720 mmHg 55%
15:00 +1°C° 0.1 mm 8 mps 720 mmHg 56%
16:00 +2°C° 0.1 mm 7 mps 720 mmHg 57%
17:00 +2°C° 0.1 mm 6 mps 720 mmHg 59%
18:00 +2°C° 0.1 mm 6 mps 720 mmHg 60%
19:00 +3°C° 0.1 mm 7 mps 720 mmHg 61%
20:00 +3°C° 0.1 mm 7 mps 720 mmHg 63%
21:00 +3°C° 0.1 mm 7 mps 720 mmHg 61%
22:00 +3°C° 0.1 mm 6 mps 720 mmHg 59%
23:00 +4°C° 0.1 mm 6 mps 719 mmHg 58%

Day after tomorrow, 26 October, Monday

Time Temperature Precipitation Wind Pressure Humidity
00:00 +4°C° 0 mm 7 mps 719 mmHg 56%
01:00 +4°C° 0 mm 7 mps 719 mmHg 54%
02:00 +5°C° 0 mm 7 mps 718 mmHg 53%
03:00 +5°C° 0 mm 8 mps 718 mmHg 57%
04:00 +5°C° 0 mm 8 mps 718 mmHg 60%
05:00 +4°C° 0 mm 8 mps 718 mmHg 64%
06:00 +4°C° 0.2 mm 8 mps 717 mmHg 69%
07:00 +3°C° 0.2 mm 9 mps 717 mmHg 73%
08:00 +3°C° 0.2 mm 9 mps 717 mmHg 77%
09:00 +3°C° 0.3 mm 9 mps 716 mmHg 75%
10:00 +3°C° 0.3 mm 9 mps 715 mmHg 72%
11:00 +3°C° 0.3 mm 10 mps 715 mmHg 69%
12:00 +3°C° 0.2 mm 10 mps 714 mmHg 68%
13:00 +5°C° 0.2 mm 10 mps 713 mmHg 67%
14:00 +5°C° 0.2 mm 10 mps 713 mmHg 66%
15:00 +6°C° 0.1 mm 9 mps 712 mmHg 59%
16:00 +6°C° 0.1 mm 8 mps 711 mmHg 51%
17:00 +8°C° 0.1 mm 6 mps 710 mmHg 43%
18:00 +7°C° 0 mm 8 mps 710 mmHg 43%
19:00 +7°C° 0 mm 9 mps 709 mmHg 43%
20:00 +7°C° 0 mm 11 mps 708 mmHg 42%
21:00 +7°C° 0.1 mm 10 mps 708 mmHg 48%
22:00 +6°C° 0.1 mm 9 mps 708 mmHg 53%
23:00 +6°C° 0.1 mm 8 mps 707 mmHg 58%

, 27 October, Tuesday

Time Temperature Precipitation Wind Pressure Humidity
00:00 +5°C° 0.1 mm 8 mps 707 mmHg 63%
01:00 +5°C° 0.1 mm 8 mps 707 mmHg 69%
02:00 +4°C° 0.1 mm 7 mps 707 mmHg 75%
03:00 +3°C° 0 mm 7 mps 707 mmHg 75%
04:00 +3°C° 0 mm 6 mps 707 mmHg 75%
05:00 +2°C° 0 mm 6 mps 707 mmHg 76%
06:00 +2°C° 0 mm 6 mps 707 mmHg 76%
07:00 +1°C° 0 mm 6 mps 707 mmHg 76%
08:00 +1°C° 0 mm 6 mps 707 mmHg 76%
09:00 +2°C° 0 mm 6 mps 707 mmHg 72%
10:00 +2°C° 0 mm 7 mps 707 mmHg 67%
11:00 +3°C° 0 mm 7 mps 706 mmHg 62%
12:00 +2°C° 0 mm 7 mps 706 mmHg 62%
13:00 +2°C° 0 mm 7 mps 706 mmHg 63%
14:00 +2°C° 0 mm 7 mps 705 mmHg 64%
15:00 0°C° 0.1 mm 7 mps 706 mmHg 65%
16:00 -1°C° 0.1 mm 7 mps 706 mmHg 66%
17:00 -1°C° 0.1 mm 7 mps 706 mmHg 67%
18:00 -2°C° 0.1 mm 6 mps 707 mmHg 67%
19:00 -3°C° 0.1 mm 6 mps 707 mmHg 67%
20:00 -4°C° 0.1 mm 6 mps 708 mmHg 67%
21:00 -4°C° 0 mm 7 mps 708 mmHg 67%
22:00 -4°C° 0 mm 7 mps 709 mmHg 68%
23:00 -6°C° 0 mm 7 mps 709 mmHg 69%

27 October, Tuesday

Time Temperature Precipitation Wind Pressure Humidity
00:00 +5°C° 0.1 mm 8 mps 707 mmHg 63%
01:00 +5°C° 0.1 mm 8 mps 707 mmHg 69%
02:00 +4°C° 0.1 mm 7 mps 707 mmHg 75%
03:00 +3°C° 0 mm 7 mps 707 mmHg 75%
04:00 +3°C° 0 mm 6 mps 707 mmHg 75%
05:00 +2°C° 0 mm 6 mps 707 mmHg 76%
06:00 +2°C° 0 mm 6 mps 707 mmHg 76%
07:00 +1°C° 0 mm 6 mps 707 mmHg 76%
08:00 +1°C° 0 mm 6 mps 707 mmHg 76%
09:00 +2°C° 0 mm 6 mps 707 mmHg 72%
10:00 +2°C° 0 mm 7 mps 707 mmHg 67%
11:00 +3°C° 0 mm 7 mps 706 mmHg 62%
12:00 +2°C° 0 mm 7 mps 706 mmHg 62%
13:00 +2°C° 0 mm 7 mps 706 mmHg 63%
14:00 +2°C° 0 mm 7 mps 705 mmHg 64%
15:00 0°C° 0.1 mm 7 mps 706 mmHg 65%
16:00 -1°C° 0.1 mm 7 mps 706 mmHg 66%
17:00 -1°C° 0.1 mm 7 mps 706 mmHg 67%
18:00 -2°C° 0.1 mm 6 mps 707 mmHg 67%
19:00 -3°C° 0.1 mm 6 mps 707 mmHg 67%
20:00 -4°C° 0.1 mm 6 mps 708 mmHg 67%
21:00 -4°C° 0 mm 7 mps 708 mmHg 67%
22:00 -4°C° 0 mm 7 mps 709 mmHg 68%
23:00 -6°C° 0 mm 7 mps 709 mmHg 69%

28 October, Wednesday

Time Temperature Precipitation Wind Pressure Humidity
00:00 -6°C° 0 mm 8 mps 709 mmHg 74%
01:00 -6°C° 0 mm 8 mps 709 mmHg 78%
02:00 -6°C° 0 mm 8 mps 709 mmHg 83%
03:00 -6°C° 0.1 mm 8 mps 710 mmHg 86%
04:00 -6°C° 0.1 mm 8 mps 710 mmHg 88%
05:00 -5°C° 0.1 mm 9 mps 711 mmHg 90%
06:00 -5°C° 0.1 mm 8 mps 711 mmHg 88%
07:00 -4°C° 0.1 mm 7 mps 712 mmHg 86%
08:00 -4°C° 0.1 mm 6 mps 713 mmHg 84%
09:00 -4°C° 0.1 mm 6 mps 713 mmHg 82%
10:00 -4°C° 0.1 mm 6 mps 714 mmHg 81%
11:00 -3°C° 0.1 mm 6 mps 714 mmHg 80%
12:00 -4°C° 0.1 mm 6 mps 715 mmHg 80%
13:00 -4°C° 0.1 mm 5 mps 715 mmHg 80%
14:00 -4°C° 0.1 mm 5 mps 715 mmHg 80%
15:00 -3°C° 0.1 mm 4 mps 716 mmHg 84%
16:00 -4°C° 0.1 mm 4 mps 716 mmHg 87%
17:00 -4°C° 0.1 mm 4 mps 716 mmHg 91%
18:00 -4°C° 0.2 mm 3 mps 717 mmHg 91%
19:00 -5°C° 0.2 mm 3 mps 717 mmHg 91%
20:00 -5°C° 0.2 mm 3 mps 717 mmHg 92%
21:00 -5°C° 0.2 mm 3 mps 718 mmHg 92%
22:00 -5°C° 0.2 mm 3 mps 718 mmHg 93%
23:00 -5°C° 0.2 mm 3 mps 718 mmHg 93%

29 October, Thursday

Time Temperature Precipitation Wind Pressure Humidity
00:00 -6°C° 0.2 mm 3 mps 718 mmHg 93%
01:00 -7°C° 0.2 mm 4 mps 719 mmHg 92%
02:00 -7°C° 0.2 mm 5 mps 719 mmHg 92%
03:00 -8°C° 0.2 mm 4 mps 719 mmHg 91%
04:00 -8°C° 0.2 mm 4 mps 720 mmHg 91%
05:00 -8°C° 0.2 mm 4 mps 720 mmHg 91%
06:00 -8°C° 0.1 mm 4 mps 721 mmHg 90%
07:00 -8°C° 0.1 mm 4 mps 721 mmHg 90%
08:00 -9°C° 0.1 mm 4 mps 722 mmHg 89%
09:00 -8°C° 0.1 mm 4 mps 722 mmHg 86%
10:00 -8°C° 0.1 mm 4 mps 723 mmHg 83%
11:00 -8°C° 0.1 mm 4 mps 723 mmHg 80%
12:00 -8°C° 0 mm 4 mps 724 mmHg 79%
13:00 -7°C° 0 mm 4 mps 725 mmHg 77%
14:00 -7°C° 0 mm 4 mps 725 mmHg 75%
15:00 -8°C° 0 mm 4 mps 726 mmHg 78%
16:00 -9°C° 0 mm 4 mps 726 mmHg 82%
17:00 -8°C° 0 mm 3 mps 726 mmHg 85%
18:00 -9°C° 0 mm 3 mps 727 mmHg 87%
19:00 -9°C° 0 mm 3 mps 727 mmHg 88%
20:00 -10°C° 0 mm 3 mps 728 mmHg 90%
21:00 -10°C° 0 mm 3 mps 728 mmHg 91%
22:00 -10°C° 0 mm 2 mps 728 mmHg 91%
23:00 -10°C° 0 mm 2 mps 728 mmHg 92%
Show more